Date,TemperatureHighF,TemperatureAvgF,TemperatureLowF,DewpointHighF,DewpointAvgF,DewpointLowF,HumidityHigh,HumidityAvg,HumidityLow,PressureMaxIn,PressureMinIn,WindSpeedMaxMPH,WindSpeedAvgMPH,GustSpeedMaxMPH,PrecipitationSumIn
2013-2-1,60.0,51.3,46.0,-99.9,-99.9,-99.9,79,63,41,0.00,40.00,12,7,0,0.00
2013-2-2,58.0,49.8,36.0,-99.9,-99.9,-99.9,97,68,67,0.00,40.00,12,7,0,0.00
2013-2-3,61.0,55.1,47.0,-99.9,-99.9,-99.9,103,58,60,0.00,40.00,12,6,0,0.00
2013-2-4,59.0,53.7,45.0,-99.9,-99.9,-99.9,98,73,69,0.00,40.00,9,5,0,0.05
2013-2-5,65.0,59.6,56.0,-99.9,-99.9,-99.9,100,4,100,0.00,40.00,13,7,0,0.52
2013-2-6,61.0,57.7,53.0,-99.9,-99.9,-99.9,0,0,100,0.00,40.00,16,7,0,0.00
2013-2-7,73.0,64.4,59.0,-99.9,-99.9,-99.9,104,51,61,0.00,40.00,33,11,0,2.82
2013-2-8,69.0,60.5,54.0,-99.9,-99.9,-99.9,99,46,80,0.00,40.00,14,6,0,0.00
2013-2-9,62.0,55.8,48.0,-99.9,-99.9,-99.9,99,88,83,0.00,40.00,17,11,0,0.00
2013-2-10,66.0,64.1,62.0,-99.9,-99.9,-99.9,104,39,97,0.00,40.00,20,14,0,0.00
2013-2-11,66.0,62.1,58.0,-99.9,-99.9,-99.9,104,4,100,0.00,40.00,17,8,0,0.75
2013-2-12,67.0,61.3,57.0,-99.9,-99.9,-99.9,0,0,100,0.00,40.00,17,12,0,0.44
2013-2-13,66.0,54.0,47.0,-99.9,-99.9,-99.9,103,35,84,0.00,40.00,15,8,0,0.23
2013-2-14,53.0,46.9,41.0,-99.9,-99.9,-99.9,104,52,68,0.00,40.00,10,5,0,0.00
2013-2-15,58.0,50.9,41.0,-99.9,-99.9,-99.9,104,47,56,0.00,40.00,12,6,0,0.00
2013-2-16,51.0,47.7,40.0,-99.9,-99.9,-99.9,80,54,29,0.00,40.00,20,12,0,0.00
2013-2-17,54.0,43.2,32.0,-99.9,-99.9,-99.9,86,64,51,0.00,40.00,13,7,0,0.00
2013-2-18,62.0,57.6,54.0,-99.9,-99.9,-99.9,87,76,65,0.00,40.00,24,18,0,0.00
2013-2-19,65.0,59.9,48.0,-99.9,-99.9,-99.9,102,51,24,0.00,40.00,22,12,0,0.76
2013-2-20,55.0,47.7,40.0,-99.9,-99.9,-99.9,89,59,34,0.00,40.00,16,9,0,0.00
2013-2-21,61.0,55.7,48.0,-99.9,-99.9,-99.9,101,52,73,0.00,40.00,15,11,0,0.00
2013-2-22,65.0,63.8,60.0,-99.9,-99.9,-99.9,99,21,85,0.00,40.00,11,6,0,0.15
2013-2-23,61.0,58.1,56.0,-99.9,-99.9,-99.9,0,0,100,0.00,40.00,11,7,0,1.34
2013-2-24,62.0,57.0,49.0,-99.9,-99.9,-99.9,104,52,84,0.00,40.00,19,9,0,0.55
2013-2-25,65.0,61.4,59.0,-99.9,-99.9,-99.9,104,4,100,0.00,40.00,25,15,0,3.20
2013-2-26,64.0,55.4,50.0,-99.9,-99.9,-99.9,83,67,64,0.00,40.00,19,14,0,0.00
2013-2-27,60.0,55.3,50.0,-99.9,-99.9,-99.9,86,74,54,0.00,40.00,14,7,0,0.00
2013-2-28,57.0,51.5,45.0,-99.9,-99.9,-99.9,86,62,38,0.00,40.00,14,9,0,0.00